Regional Weather Roundup
Issued by NWS

Home | Current Version | Previous Version | Graphics & Text | Print | Product List | Glossary On
Versions: 1 2 3 4 5 6 7 8 9 10 11 12 13 14 15 16 17 18 19 20 21 22 23 24 25 26 27
000
ASUS45 KSLC 250110
RWRUT

UTAH REGIONAL WEATHER ROUNDUP
NATIONAL WEATHER SERVICE SALT LAKE CITY UT
700 PM MDT SAT SEP 24 2016

UTZ001>011-023>025-250200-

NORTHERN UTAH

CITY           SKY/WX    TMP DP  RH WIND       PRES   REMARKS
BRIGHAM CITY     N/A     59  45  60 S5        30.31R
HILL AFB       CLEAR     59  42  53 E3        30.31R
LOGAN          CLEAR     59  41  51 N6        30.30R
OGDEN          CLEAR     60  41  49 CALM      30.30R
PROVO AIRPORT  CLEAR     56  45  66 W3        30.33R
SALT LAKE CITY PTCLDY    61  43  51 N5        30.30R
VERNAL         CLOUDY    55  42  61 CALM      30.26R
WENDOVER       CLEAR     63  43  48 S8        30.30R
HEBER CITY     CLEAR     54  34  47 N8        30.31R
WEST JORDAN    CLEAR     57  41  55 NW6       30.33R

$$

UTZ012>022-026-027-250200-

SOUTHERN/CENTRAL UTAH

CITY           SKY/WX    TMP DP  RH WIND       PRES   REMARKS
BLANDING       MOCLDY    59  32  36 N12       30.31R
BRYCE CANYON   PTCLDY    52  34  50 N9        30.34R
CEDAR CITY     CLEAR     61  32  33 NE12      30.27R
DELTA          CLEAR     59  32  36 NW9G17    30.30R
MILFORD        CLEAR     63  37  38 NE14      30.28R
MOAB/CYNLANDS  MOCLDY    63  39  41 NW7       30.20R
PRICE          PTCLDY    54  34  46 NW13G22   30.30R
ST GEORGE      CLEAR     81  36  19 NE7       30.12R

$$

REGIONAL REPORTS     COLORADO/ARIZONA

CITY           SKY/WX    TMP DP  RH WIND       PRES   REMARKS
CRAIG, CO      LGT RAIN  45  40  82 W7        30.32R
GRAND JUNCTION CLOUDY    56  45  66 NW3       30.26R
RIFLE          CLOUDY    51  46  83 CALM      30.30R
MONTROSE       CLOUDY    56  36  47 CALM      30.30R
CORTEZ         CLOUDY    56  38  50 N3        30.23R
PAGE, AZ       CLEAR     70  33  25 E5        30.15R
GRAND CANYON   CLEAR     61  31  32 NE5       30.28R
KINGMAN        CLEAR     76  32  20 N18       30.11S
FLAGSTAFF      CLEAR     57  28  33 NE8       30.25R

$$

REGIONAL REPORTS    NEVADA/IDAHO/WYOMING

CITY           SKY/WX    TMP DP  RH WIND       PRES   REMARKS
LAS VEGAS, NV  PTCLDY    84  25  11 E7        30.05S
ELY            CLEAR     62  32  32 N10       30.35R
ELKO           CLEAR     65  24  21 NW8       30.33S
POCATELLO, ID  PTCLDY    56  37  49 SW17      30.30R
BURLEY         CLEAR     56  35  45 W12       30.30R
EVANSTON, WY   CLOUDY    47  33  58 W12       30.37R
ROCK SPRINGS   CLOUDY    46  36  68 W12       30.30R

$$




USA.gov is the U.S. government's official web portal to all federal, state and local government web resources and services.